Regional Weather Roundup
Issued by NWS Northern Indiana

Home | Current Version | Previous Version | Text Only | Print | Product List | Glossary Off
Versions: 1 2 3 4 5 6 7 8 9 10 11 12 13 14 15 16 17 18 19 20 21 22 23 24 25 26 27 28 29 30 31 32 33 34 35 36 37 38 39 40 41 42 43 44 45 46 47 48 49 50

000
ASUS43 KIWX 050410
RWRIWX

KIWX WEATHER ROUNDUP
NATIONAL WEATHER SERVICE NORTHERN INDIANA
1200 AM EDT SAT SEP 05 2015

NOTE: "FAIR" INDICATES FEW OR NO CLOUDS BELOW 12,000 FEET WITH NO
SIGNIFICANT WEATHER AND/OR OBSTRUCTIONS TO VISIBILITY.

* THESE STATIONS ARE NOT UNDER NWS QUALITY CONTROL. THEY ALSO MAY NOT
  REPORT WEATHER SUCH AS PRECIPITATION OR FOG.

INZ001>027-050500-
NORTHERN INDIANA

CITY           SKY/WX    TMP DP  RH WIND       PRES   REMARKS
GARY*          CLEAR     71  68  92 CALM      30.07S
VALPARAISO     CLEAR     70  68  93 CALM      30.08R
MICHIGAN CITY* MOCLDY    68  68 100 CALM      30.08R
LAPORTE*       MOCLDY   N/A N/A N/A CALM      30.08S
KNOX*          CLEAR     68  68 100 CALM      30.07R
SOUTH BEND     PTCLDY    71  67  87 CALM      30.08R
GOSHEN         MOCLDY    70  66  87 SE5       30.08R
MONTICELLO*    PTCLDY    70  67  91 CALM      30.07R
LOGANSPORT*    MOCLDY    64  61  88 SE3       30.09S
ROCHESTER*     PTCLDY    70  70 100 E6        30.08S
WARSAW*        MOCLDY    68  66  94 CALM      30.10R
ANGOLA*        CLEAR     70  61  73 S5        30.09S
FORT WAYNE     MOCLDY    68  64  87 SW8       30.09S
HUNTINGTON*    MOCLDY    66  62  87 CALM      30.10S
PERU/GRISSOM   MOCLDY    69  65  88 SE5       30.09R
MARION*        MOCLDY    65  59  81 CALM      30.12R

$$
INZ028>050-050500-
CENTRAL INDIANA

CITY           SKY/WX    TMP DP  RH WIND       PRES   REMARKS
LAFAYETTE      CLEAR     69  64  84 W6        30.07S
KOKOMO*        MOCLDY    66  63  88 SE5       30.10S
MUNCIE*        CLOUDY    68  62  81 S7        30.10R
INDIANAPOLIS   CLOUDY    71  66  84 CALM      30.08S

$$
MIZ043>046-050>051-056>058-064>065-071>073-077>080-050500-
SOUTHWEST LOWER MICHIGAN

CITY           SKY/WX    TMP DP  RH WIND       PRES   REMARKS
BATTLE CREEK   PTCLDY    68  65  90 CALM      30.08R
BENTON HARBOR  CLEAR     66  64  93 CALM      30.06S FOG
COLDWATER*     PTCLDY    70  70  99 CALM      30.08S FOG
HILLSDALE*     PTCLDY    69  69 100 S3        30.10R FOG
HOLLAND        CLEAR     64  62  93 CALM      30.07S FOG
GRAND RAPIDS   PTCLDY    69  67  93 CALM      30.07R FOG
KALAMAZOO      PTCLDY    68  64  87 CALM      30.08R
STURGIS*       PTCLDY    70  68  94 CALM      30.08R
THREE RIVERS*  FAIR      70  67  90 SW3       30.08R

$$
OHZ001>008-015>018-024>025-050500-
NORTHWEST OHIO

CITY           SKY/WX    TMP DP  RH WIND       PRES   REMARKS
WAUSEON*       MOCLDY    68  68 100 S7        30.09S
DEFIANCE       MOCLDY    71  67  87 S3        30.09R
FINDLAY        MOCLDY    69  66  90 W5        30.09S
TOLEDO EXPRESS CLOUDY    69  66  90 CALM      30.08R
TOLEDO METCALF PTCLDY    70  64  81 CALM      30.09R
LIMA           PTCLDY    66  63  90 CALM      30.10S

$$
AND FOR LAKE MICHIGAN COASTAL AND OPEN LAKE BUOY OBSERVATIONS

STATION/POSITION TEMP    WIND        PRES    VSBY  WAVE
                 AIR SEA DIR/SP/G                  HT/PER
                 (F)     (DEG/KT/KT) (MB)    (MI)  (FT/S)
CALUMET HARBOR    72      60/  4/  5   N/A
MICHIGAN CITY     71      40/  4/  5   N/A
BURNS HARBOR      72      80/  5/  7 1018.3R
SAINT JOSEPH      68      CALM  /  1 1018.3F
SOUTH LAKE BUOY   69 71  160/  2/  4 1017.6F
4 MI NW BRIDGMAN  71 75   90/  6/  8   N/A           1
MICHIGAN CITY     72 74  160/  6/ 16   N/A           1/ 4

$$
&&


USA.gov is the U.S. government's official web portal to all federal, state and local government web resources and services.